Photometre #843[NE_1.6_Dp] Camborne_MO AOT

File : 20220923_843.hum

23/09/2022,07:04:39,TEMP=14.9,BA=5.68,STAT.A,ExtBa=12.20
23/09/2022,07:08:43,TEMP=15.1,BA=5.68,STAT.A,ExtBa=12.20
23/09/2022,07:13:27,TEMP=15.2,BA=5.64,STAT.A,ExtBa=12.20
23/09/2022,07:19:05,TEMP=15.2,BA=5.64,STAT.A,ExtBa=12.20
23/09/2022,07:25:54,TEMP=15.4,BA=5.64,STAT.A,ExtBa=12.20
23/09/2022,07:28:23,TEMP=15.8,BA=5.64,STAT.D,ExtBa=12.10
23/09/2022,07:32:23,TEMP=15.8,BA=5.68,STAT.D,ExtBa=12.10
23/09/2022,07:34:28,TEMP=16.1,BA=5.68,STAT.A,ExtBa=12.10
23/09/2022,07:40:23,TEMP=15.9,BA=5.68,STAT.D,ExtBa=12.10
23/09/2022,07:44:23,TEMP=16.1,BA=5.68,STAT.D,ExtBa=12.10
23/09/2022,07:46:22,TEMP=16.4,BA=5.68,STAT.B,ExtBa=12.10
23/09/2022,07:50:07,TEMP=16.2,BA=5.64,STAT.A,ExtBa=12.10
23/09/2022,07:55:53,TEMP=16.2,BA=5.64,STAT.A,ExtBa=12.10
23/09/2022,08:00:23,TEMP=16.2,BA=5.68,STAT.D,ExtBa=12.10
23/09/2022,08:02:26,TEMP=16.5,BA=5.68,STAT.A,ExtBa=12.10
23/09/2022,08:08:23,TEMP=16.2,BA=5.68,STAT.D,ExtBa=12.10
23/09/2022,08:10:25,TEMP=16.6,BA=5.64,STAT.A,ExtBa=12.10
23/09/2022,08:16:58,TEMP=16.5,BA=5.64,STAT.D,ExtBa=12.10
23/09/2022,08:19:00,TEMP=16.9,BA=5.64,STAT.C,ExtBa=12.10
23/09/2022,08:28:26,TEMP=17.3,BA=5.64,STAT.b=17.0
23/09/2022,08:29:08,TEMP=17.4,BA=5.64,STAT.A,ExtBa=12.10
23/09/2022,08:40:24,TEMP=17.3,BA=5.68,STAT.D,ExtBa=12.10
23/09/2022,08:42:25,TEMP=17.7,BA=5.68,STAT.A,ExtBa=12.10
23/09/2022,08:48:24,TEMP=17.3,BA=5.68,STAT.D,ExtBa=12.10
23/09/2022,08:52:24,TEMP=17.3,BA=5.68,STAT.D,ExtBa=12.10
23/09/2022,08:55:12,TEMP=17.3,BA=5.68,STAT.A,ExtBa=12.10
23/09/2022,09:08:24,TEMP=16.2,BA=5.68,STAT.D,ExtBa=12.10
23/09/2022,09:12:24,TEMP=16.3,BA=5.68,STAT.D,ExtBa=12.10
23/09/2022,09:14:26,TEMP=16.8,BA=5.68,STAT.A,ExtBa=12.10
23/09/2022,09:16:43,TEMP=16.8,BA=5.68,STAT.F,ExtBa=12.10
23/09/2022,09:28:24,TEMP=17.8,BA=5.68,STAT.D,ExtBa=12.10
23/09/2022,09:30:24,TEMP=18.5,BA=5.64,STAT.D,ExtBa=12.10
23/09/2022,09:36:24,TEMP=18.5,BA=5.64,STAT.D,ExtBa=12.10
23/09/2022,09:40:24,TEMP=18.8,BA=5.68,STAT.D,ExtBa=12.10
23/09/2022,09:44:26,TEMP=18.6,BA=5.68,STAT.D,ExtBa=12.10
23/09/2022,09:56:24,TEMP=18.2,BA=5.68,STAT.D,ExtBa=12.10
23/09/2022,09:59:26,TEMP=18.3,BA=5.68,STAT.D,ExtBa=12.10
23/09/2022,10:04:24,TEMP=18.1,BA=5.52,STAT.D,ExtBa=12.10
23/09/2022,10:14:28,TEMP=18.3,BA=5.68,STAT.F,ExtBa=12.10
23/09/2022,10:20:24,TEMP=18.3,BA=5.68,STAT.D,ExtBa=12.10
23/09/2022,10:24:24,TEMP=18.3,BA=5.68,STAT.D,ExtBa=12.10
23/09/2022,10:28:24,TEMP=18.1,BA=5.68,STAT.D,ExtBa=12.10
23/09/2022,10:30:22,TEMP=18.3,BA=5.68,STAT.D,ExtBa=12.10
23/09/2022,10:44:24,TEMP=17.3,BA=5.68,STAT.D,ExtBa=12.10
23/09/2022,10:46:24,TEMP=17.8,BA=5.68,STAT.D,ExtBa=12.10
23/09/2022,10:52:24,TEMP=18.0,BA=5.68,STAT.D,ExtBa=12.10
23/09/2022,10:56:24,TEMP=18.4,BA=5.68,STAT.D,ExtBa=12.10
23/09/2022,10:59:26,TEMP=18.6,BA=5.68,STAT.D,ExtBa=12.10
23/09/2022,11:12:24,TEMP=18.4,BA=5.68,STAT.D,ExtBa=12.10
23/09/2022,11:14:28,TEMP=18.7,BA=5.68,STAT.F,ExtBa=12.10
23/09/2022,11:39:09,TEMP=19.7,BA=5.64,STAT.D,ExtBa=12.00
23/09/2022,11:44:24,TEMP=19.1,BA=5.64,STAT.D,ExtBa=12.10
23/09/2022,11:46:22,TEMP=19.5,BA=5.64,STAT.D,ExtBa=12.10
23/09/2022,11:52:24,TEMP=19.2,BA=5.68,STAT.D,ExtBa=12.10
23/09/2022,11:56:24,TEMP=19.4,BA=5.68,STAT.D,ExtBa=12.10
23/09/2022,11:59:26,TEMP=19.5,BA=5.68,STAT.D,ExtBa=12.10
23/09/2022,12:04:24,TEMP=19.4,BA=5.64,STAT.D,ExtBa=12.10
23/09/2022,12:08:24,TEMP=19.4,BA=5.64,STAT.D,ExtBa=12.10
23/09/2022,12:12:24,TEMP=19.4,BA=5.68,STAT.D,ExtBa=12.10
23/09/2022,12:14:28,TEMP=19.7,BA=5.68,STAT.F,ExtBa=12.10
23/09/2022,12:38:50,TEMP=20.2,BA=5.64,STAT.D,ExtBa=12.00
23/09/2022,12:44:24,TEMP=19.6,BA=5.64,STAT.D,ExtBa=12.10
23/09/2022,12:46:21,TEMP=20.0,BA=5.64,STAT.D,ExtBa=12.10
23/09/2022,12:52:24,TEMP=19.6,BA=5.68,STAT.D,ExtBa=12.10
23/09/2022,12:56:24,TEMP=19.7,BA=5.68,STAT.D,ExtBa=12.10
23/09/2022,12:59:26,TEMP=19.9,BA=5.68,STAT.D,ExtBa=12.10
23/09/2022,13:04:24,TEMP=19.7,BA=5.64,STAT.D,ExtBa=12.10
23/09/2022,13:08:24,TEMP=19.7,BA=5.64,STAT.D,ExtBa=12.10
23/09/2022,13:12:24,TEMP=19.6,BA=5.64,STAT.D,ExtBa=12.10
23/09/2022,13:14:28,TEMP=19.9,BA=5.64,STAT.F,ExtBa=12.10
23/09/2022,13:38:54,TEMP=20.2,BA=5.56,STAT.D,ExtBa=12.00
23/09/2022,13:46:26,TEMP=19.5,BA=5.64,STAT.D,ExtBa=12.10
23/09/2022,13:48:24,TEMP=20.0,BA=5.64,STAT.D,ExtBa=12.00
23/09/2022,13:52:24,TEMP=19.8,BA=5.64,STAT.D,ExtBa=12.10
23/09/2022,13:56:24,TEMP=19.7,BA=5.64,STAT.D,ExtBa=12.10
23/09/2022,13:59:26,TEMP=19.6,BA=5.64,STAT.D,ExtBa=12.10
23/09/2022,14:04:24,TEMP=19.4,BA=5.64,STAT.D,ExtBa=12.10
23/09/2022,14:08:24,TEMP=19.4,BA=5.64,STAT.D,ExtBa=12.10
23/09/2022,14:12:24,TEMP=19.5,BA=5.68,STAT.D,ExtBa=12.10
23/09/2022,14:14:28,TEMP=19.9,BA=5.68,STAT.F,ExtBa=12.10
23/09/2022,14:38:35,TEMP=19.8,BA=5.64,STAT.D,ExtBa=12.00
23/09/2022,14:44:24,TEMP=19.1,BA=5.64,STAT.D,ExtBa=12.00
23/09/2022,14:46:14,TEMP=19.3,BA=5.64,STAT.D,ExtBa=12.00
23/09/2022,14:56:24,TEMP=18.5,BA=5.68,STAT.D,ExtBa=12.10
23/09/2022,14:59:26,TEMP=18.6,BA=5.68,STAT.D,ExtBa=12.00
23/09/2022,15:05:52,TEMP=18.2,BA=5.64,STAT.D,ExtBa=12.10
23/09/2022,15:08:24,TEMP=18.4,BA=5.64,STAT.D,ExtBa=12.00
23/09/2022,15:14:27,TEMP=18.1,BA=5.64,STAT.F,ExtBa=12.10
23/09/2022,15:16:30,TEMP=18.4,BA=5.64,STAT.A,ExtBa=12.00
23/09/2022,15:28:24,TEMP=17.7,BA=5.68,STAT.D,ExtBa=12.10
23/09/2022,15:32:24,TEMP=17.8,BA=5.64,STAT.D,ExtBa=12.10
23/09/2022,15:34:23,TEMP=18.2,BA=5.64,STAT.A,ExtBa=12.00
23/09/2022,15:40:24,TEMP=17.9,BA=5.68,STAT.D,ExtBa=12.10
23/09/2022,15:44:24,TEMP=18.0,BA=5.68,STAT.D,ExtBa=12.10
23/09/2022,15:48:20,TEMP=18.1,BA=5.68,STAT.A,ExtBa=12.00
23/09/2022,15:52:24,TEMP=18.1,BA=5.64,STAT.D,ExtBa=12.00
23/09/2022,15:56:24,TEMP=18.2,BA=5.64,STAT.D,ExtBa=12.00
23/09/2022,16:00:21,TEMP=18.1,BA=5.68,STAT.A,ExtBa=12.00
23/09/2022,16:04:23,TEMP=18.1,BA=5.68,STAT.D,ExtBa=12.00
23/09/2022,16:08:24,TEMP=18.1,BA=5.68,STAT.D,ExtBa=12.00
23/09/2022,16:10:26,TEMP=18.4,BA=5.68,STAT.C,ExtBa=12.00
23/09/2022,16:35:56,TEMP=18.4,BA=5.64,STAT.A,ExtBa=12.00
23/09/2022,16:39:15,TEMP=17.9,BA=5.64,STAT.A,ExtBa=12.00
23/09/2022,16:41:33,TEMP=18.1,BA=5.44,STAT.A,ExtBa=12.00
23/09/2022,16:43:42,TEMP=18.1,BA=5.44,STAT.A,ExtBa=12.00
23/09/2022,16:45:52,TEMP=18.0,BA=5.44,STAT.B,ExtBa=12.00
23/09/2022,16:55:32,TEMP=17.8,BA=5.56,STAT.A,ExtBa=12.00
23/09/2022,17:00:23,TEMP=17.2,BA=5.64,STAT.D,ExtBa=12.00
23/09/2022,17:03:00,TEMP=17.3,BA=5.64,STAT.A,ExtBa=12.00
23/09/2022,17:08:23,TEMP=16.9,BA=5.64,STAT.D,ExtBa=12.00
23/09/2022,17:10:24,TEMP=17.3,BA=5.68,STAT.A,ExtBa=12.00
23/09/2022,17:15:27,TEMP=16.7,BA=5.68,STAT.A,ExtBa=12.00
23/09/2022,17:20:11,TEMP=16.5,BA=5.48,STAT.A,ExtBa=12.00
23/09/2022,17:24:13,TEMP=16.4,BA=5.48,STAT.A,ExtBa=12.00